« Back
NWS Peachtree City, Ga » Text Product » GA Regional Weather Roundup


Printer-friendly Version
Current Version              Previous Versions:   1  2  3  4  5  6  7  8  9  

Regional Weather Roundup

328
ASUS42 KFFC 170903
RWRGA
WEATHER ROUNDUP FOR GEORGIA
NATIONAL WEATHER SERVICE PEACHTREE CITY GA
500 AM EDT WED SEP 17 2014

NOTE: "FAIR" INDICATES FEW OR NO CLOUDS BELOW 12,000 FEET WITH NO
SIGNIFICANT WEATHER AND/OR OBSTRUCTIONS TO VISIBILITY.

* = USE WITH CAUTION. THE STATIONS MARKED WITH AN ASTERISK MAY NOT
REPORT WEATHER SUCH AS PRECIPITATION, FOG, OR THUNDER AND ARE NOT
QUALITY CONTROLLED BY NWS.

THE REMARK "TC" DENOTES TEMPERATURE READING IN DEGREES CELSIUS.

GAZ001>058-171000-
NORTH GEORGIA

CITY           SKY/WX    TMP DP  RH WIND       PRES   REMARKS
ATLANTA        CLEAR     69  66  90 N9        29.97S
ATHENS         MOCLDY    70  66  87 NW5       29.95F
CHAMBLEE       CLEAR     68  65  90 CALM      29.98S
PEACHTREE CITY CLEAR     69  67  93 NW8       29.97F
ROME           CLEAR     67  64  90 N5        29.99S
WEST ATLANTA   CLEAR     69  65  86 N3        29.97F
GAINESVILLE    CLEAR     67  65  93 CALM      30.00S
CARTERSVILLE   MOCLDY    67  64  90 CALM      30.00S


CITY           SKY/WX    TMP DP  RH WIND       PRES   REMARKS
DALTON*        PTCLDY    63  63 100 CALM      30.00S
MARIETTA       PTCLDY    68  65  92 NW5       29.98F
$$

GAZ059>098-102>109-171000-
CENTRAL GEORGIA

CITY           SKY/WX    TMP DP  RH WIND       PRES   REMARKS
AUGUSTA-BUSH   CLEAR     68  67  96 NE5       29.92R
AUGUSTA-DANIEL CLEAR     72  70  93 NE8       29.93S
COLUMBUS       CLEAR     72  69  90 CALM      29.93F
MACON          PTCLDY    68  68 100 CALM      29.93S
ROBINS AFB     PTCLDY    70  68  96 N1        29.92F


CITY           SKY/WX    TMP DP  RH WIND       PRES   REMARKS
LAGRANGE*      CLEAR     74  72  92 N3        29.96S
SYLVANIA*      FOG       71  71  99 CALM      29.92F VSB 1/4
MILLEDGEVILLE* PTCLDY    70  70 100 CALM      29.93S FOG
$$

GAZ099>101-110>166-171000-
SOUTH GEORGIA

CITY           SKY/WX    TMP DP  RH WIND       PRES   REMARKS
SAVANNAH       PTCLDY    71  68  90 N3        29.91F
VALDOSTA       FOG       71  70  96 CALM      29.93S VSB 1/2
ALMA           PTCLDY    71  70  96 CALM      29.92S
ST SIMONS      PTCLDY    73  71  93 NW6       29.90S
FT STEWART     MOCLDY    70  69  94 CALM      29.90S
ALBANY         PTCLDY    70  69  97 CALM      29.94F
HUNTER AFB     MOCLDY    69  69 100 NW3       29.89F
MOODY AFB      MOCLDY    71  70  96 NW3       29.93S
BRUNSWICK      PTCLDY    72  70  94 NW3       29.90F


CITY           SKY/WX    TMP DP  RH WIND       PRES   REMARKS
BAINBRIDGE*    MOCLDY    73  72  94 CALM      29.93S
MOULTRIE*      PTCLDY    72  72 100 CALM      29.94S
VIDALIA*       PTCLDY    70  70 100 CALM      29.92S
WAYCROSS*      CLOUDY    74  73  99 W3        29.92S
DOUGLAS*       MOCLDY    72  72 100 CALM      29.94S FOG
$$



USA.gov is the U.S. government's official web portal to all federal, state and local government web resources and services.